User: anonymous   Login
Location: Unspecified
(0.0000°N, 0.0000°E)
Time: 13:41:51
(UTC+00:00)
Language:

NUSAT 2 - Orbit

View from above orbital plane
View from above orbital plane
View from above satellite
View from above satellite

Ground track
Ground track

The orbit data is extracted from the following two-line orbital elements,

1 41558U 16033C   17114.89591961 +.00004510 +00000-0 +17404-3 0  9997
2 41558 097.4679 194.4589 0013687 187.3424 172.7616 15.26728349050294
Epoch (UTC): 24 April 2017 21:30:07
Eccentricity: 0.0013687
inclination: 97.4679°
perigee height: 476 km
apogee height: 495 km
right ascension of ascending node: 194.4589°
argument of perigee: 187.3424°
revolutions per day: 15.26728349
mean anomaly at epoch: 172.7616°
orbit number at epoch: 5029

The dashed part of the orbit path shows where the satellite is in the earth's shadow,  

DLR